Regional Weather Roundup
Issued by NWS

Home | Current Version | Previous Version | Graphics & Text | Print | Product List | Glossary Off
Versions: 1 2 3 4 5 6 7 8 9 10 11 12 13 14 15 16 17 18 19 20 21 22 23 24 25 26 27 28 29 30 31 32 33 34 35 36 37 38 39 40 41 42 43 44 45 46 47 48 49 50

000
ASUS43 KTOP 270959
RWRKS

WEATHER ROUNDUP FOR KANSAS
NATIONAL WEATHER SERVICE GOODLAND KS
500 AM CDT THU APR 27 2017

NOTE:  "FAIR" INDICATES FEW OR NO CLOUDS BELOW 12,000 FEET WITH NO
SIGNIFICANT WEATHER AND/OR OBSTRUCTIONS TO VISIBILITY.

KSZ001>006-013>018-027>032-041>047-271100-
NORTHWEST KANSAS

CITY           SKY/WX    TMP DP  RH WIND       PRES   REMARKS
GOODLAND       CLOUDY    34  29  82 S8        29.63F
HAYS           CLEAR     31  28  89 E6        29.70F
HILL CITY      CLEAR     29  27  92 CALM      29.70F
RUSSELL        CLEAR     31  29  92 E3        29.70S
$$

KSZ061>065-074>080-084>089-271100-
SOUTHWEST KANSAS

CITY           SKY/WX    TMP DP  RH WIND       PRES   REMARKS
DODGE CITY     CLEAR     38  33  82 S6        29.67F
ELKHART          N/A     41  32  71 S6          N/A
GARDEN CITY    CLOUDY    38  32  79 S7        29.66F
GREAT BEND     CLEAR     31  28  89 CALM      29.71F
LIBERAL        MOCLDY    40  37  89 S3        29.68F
$$

KSZ066>073-081>083-090>101-271100-
SOUTHEAST KANSAS

CITY           SKY/WX    TMP DP  RH WIND       PRES   REMARKS
CHANUTE        CLEAR     38  36  92 W5        29.72R
COFFEYVILLE    CLEAR     39  39 100 W5        29.73S
HUTCHINSON     CLEAR     33  31  92 CALM      29.72F
MEDICINE LODGE   N/A     32  30  92 E7        29.68F
NEWTON         CLEAR     36  33  89 CALM      29.72F
PARSONS        CLEAR     37  36  96 CALM      29.73S
WICHITA INTL   CLEAR     35  33  92 CALM      29.72F
WICHITA JABRA  CLEAR     38  35  89 NW3       29.72F
WINFIELD       CLEAR     36  34  92 N5        29.73F
$$

KSZ007>012-019>026-033>040-048>060-102>105-271100-
NORTHEAST KANSAS

CITY           SKY/WX    TMP DP  RH WIND       PRES   REMARKS
CONCORDIA      CLEAR     32  29  88 W6        29.70F
EMPORIA        CLEAR     36  34  92 W6        29.71R
LAWRENCE       CLOUDY    45  35  68 NW12      29.70S
MANHATTAN      CLEAR     34  30  85 W6        29.71S
OLATHE IND     CLOUDY    43  34  70 NW10      29.69S
OLATHE EXE     CLOUDY    42  35  76 NW9       29.68S
SALINA         CLEAR     35  30  82 CALM      29.72F
TOPEKA BILLARD CLEAR     40  33  76 W5        29.71R
TOPEKA FORBES  CLEAR     39  33  79 NW8       29.70R
$$



USA.gov is the U.S. government's official web portal to all federal, state and local government web resources and services.